Tiempo cada hora Cazin

Hoy, 21 Enero, Jueves

Tiempo Temperatura Precipitaciones Viento Presión Humedad
00:00 +2°C° 0 mm 3 mps 725 mmHg 90%
01:00 +2°C° 0 mm 3 mps 724 mmHg 90%
02:00 +3°C° 0 mm 3 mps 724 mmHg 89%
03:00 +3°C° 0 mm 4 mps 724 mmHg 89%
04:00 +3°C° 0 mm 4 mps 723 mmHg 89%
05:00 +3°C° 0 mm 4 mps 723 mmHg 89%
06:00 +3°C° 0 mm 3 mps 723 mmHg 90%
07:00 +3°C° 0 mm 3 mps 723 mmHg 90%
08:00 +4°C° 0 mm 4 mps 723 mmHg 89%
09:00 +5°C° 0 mm 4 mps 723 mmHg 89%
10:00 +6°C° 0 mm 4 mps 724 mmHg 88%
11:00 +6°C° 0 mm 4 mps 723 mmHg 87%
12:00 +7°C° 0 mm 4 mps 723 mmHg 86%
13:00 +7°C° 0 mm 4 mps 723 mmHg 85%
14:00 +7°C° 0 mm 4 mps 723 mmHg 85%
15:00 +6°C° 0 mm 4 mps 723 mmHg 86%
16:00 +6°C° 0 mm 4 mps 723 mmHg 86%
17:00 +6°C° 0 mm 4 mps 722 mmHg 87%
18:00 +5°C° 0 mm 4 mps 722 mmHg 87%
19:00 +5°C° 0 mm 4 mps 722 mmHg 87%
20:00 +5°C° 0.1 mm 4 mps 722 mmHg 87%
21:00 +5°C° 0.1 mm 4 mps 722 mmHg 88%
22:00 +4°C° 0.1 mm 3 mps 722 mmHg 88%
23:00 +5°C° 0 mm 3 mps 721 mmHg 88%

Mañana, 22 Enero, Viernes

Tiempo Temperatura Precipitaciones Viento Presión Humedad
00:00 +5°C° 0 mm 3 mps 721 mmHg 88%
01:00 +5°C° 0 mm 3 mps 721 mmHg 88%
02:00 +5°C° 0.1 mm 4 mps 720 mmHg 89%
03:00 +5°C° 0.1 mm 4 mps 720 mmHg 89%
04:00 +5°C° 0.1 mm 4 mps 719 mmHg 89%
05:00 +6°C° 0.1 mm 4 mps 719 mmHg 88%
06:00 +6°C° 0.1 mm 4 mps 719 mmHg 88%
07:00 +6°C° 0.1 mm 4 mps 718 mmHg 87%
08:00 +7°C° 0.2 mm 4 mps 718 mmHg 87%
09:00 +7°C° 0.2 mm 4 mps 718 mmHg 88%
10:00 +7°C° 0.2 mm 4 mps 717 mmHg 88%
11:00 +8°C° 0.5 mm 4 mps 717 mmHg 87%
12:00 +8°C° 0.5 mm 4 mps 717 mmHg 87%
13:00 +8°C° 0.5 mm 4 mps 716 mmHg 86%
14:00 +8°C° 0.1 mm 4 mps 716 mmHg 85%
15:00 +8°C° 0.1 mm 4 mps 716 mmHg 85%
16:00 +9°C° 0.1 mm 3 mps 715 mmHg 84%
17:00 +8°C° 0 mm 3 mps 715 mmHg 85%
18:00 +8°C° 0 mm 3 mps 714 mmHg 86%
19:00 +7°C° 0 mm 3 mps 713 mmHg 87%
20:00 +6°C° 0.4 mm 4 mps 713 mmHg 87%
21:00 +7°C° 0.4 mm 4 mps 713 mmHg 87%
22:00 +7°C° 0.4 mm 4 mps 712 mmHg 87%
23:00 +7°C° 1.3 mm 5 mps 712 mmHg 87%

Pasado mañana, 23 Enero, Sábado

Tiempo Temperatura Precipitaciones Viento Presión Humedad
00:00 +8°C° 1.3 mm 5 mps 711 mmHg 87%
01:00 +8°C° 1.3 mm 6 mps 711 mmHg 87%
02:00 +8°C° 2.3 mm 6 mps 711 mmHg 86%
03:00 +8°C° 2.3 mm 6 mps 710 mmHg 85%
04:00 +8°C° 2.3 mm 6 mps 710 mmHg 85%
05:00 +7°C° 0.9 mm 5 mps 710 mmHg 86%
06:00 +7°C° 0.9 mm 4 mps 710 mmHg 86%
07:00 +7°C° 0.9 mm 4 mps 709 mmHg 87%
08:00 +8°C° 0.3 mm 3 mps 709 mmHg 86%
09:00 +8°C° 0.3 mm 3 mps 709 mmHg 84%
10:00 +8°C° 0.3 mm 3 mps 709 mmHg 83%
11:00 +9°C° 0.2 mm 3 mps 709 mmHg 79%
12:00 +9°C° 0.2 mm 2 mps 709 mmHg 74%
13:00 +9°C° 0.2 mm 2 mps 709 mmHg 70%
14:00 +8°C° 0.2 mm 2 mps 709 mmHg 74%
15:00 +7°C° 0.2 mm 2 mps 709 mmHg 78%
16:00 +6°C° 0.2 mm 2 mps 709 mmHg 82%
17:00 +6°C° 0.2 mm 2 mps 709 mmHg 85%
18:00 +4°C° 0.2 mm 3 mps 709 mmHg 87%
19:00 +3°C° 0.2 mm 3 mps 709 mmHg 90%
20:00 +3°C° 0.2 mm 3 mps 709 mmHg 89%
21:00 +3°C° 0.2 mm 3 mps 709 mmHg 89%
22:00 +3°C° 0.2 mm 3 mps 709 mmHg 88%
23:00 +3°C° 0.7 mm 3 mps 709 mmHg 90%

24 Enero, Domingo

Tiempo Temperatura Precipitaciones Viento Presión Humedad
00:00 +3°C° 0.7 mm 3 mps 708 mmHg 91%
01:00 +3°C° 0.7 mm 2 mps 708 mmHg 93%
02:00 +3°C° 1.9 mm 2 mps 708 mmHg 93%
03:00 +3°C° 1.9 mm 2 mps 708 mmHg 94%
04:00 +2°C° 1.9 mm 2 mps 708 mmHg 94%
05:00 +2°C° 0 mm 2 mps 709 mmHg 94%
06:00 +3°C° 0 mm 1 mps 709 mmHg 94%
07:00 +3°C° 0 mm 1 mps 710 mmHg 94%
08:00 +4°C° 0 mm 1 mps 711 mmHg 93%
09:00 +4°C° 0 mm 1 mps 711 mmHg 92%
10:00 +5°C° 0 mm 1 mps 712 mmHg 91%
11:00 +5°C° 0.2 mm 1 mps 712 mmHg 91%
12:00 +5°C° 0.2 mm 1 mps 712 mmHg 91%
13:00 +5°C° 0.2 mm 1 mps 712 mmHg 90%
14:00 +4°C° 0.1 mm 1 mps 712 mmHg 91%
15:00 +4°C° 0.1 mm 1 mps 712 mmHg 92%
16:00 +4°C° 0.1 mm 1 mps 711 mmHg 92%
17:00 +3°C° 0.2 mm 1 mps 711 mmHg 93%
18:00 +3°C° 0.2 mm 1 mps 711 mmHg 95%
19:00 +1°C° 0.2 mm 2 mps 711 mmHg 96%
20:00 +1°C° 1.3 mm 2 mps 710 mmHg 96%
21:00 0°C° 1.3 mm 3 mps 710 mmHg 97%
22:00 -1°C° 1.3 mm 3 mps 710 mmHg 97%
23:00 -1°C° 1.2 mm 3 mps 710 mmHg 96%

25 Enero, Lunes

Tiempo Temperatura Precipitaciones Viento Presión Humedad
00:00 -1°C° 1.2 mm 2 mps 710 mmHg 95%
01:00 -2°C° 1.2 mm 2 mps 710 mmHg 94%
02:00 -2°C° 0.2 mm 2 mps 710 mmHg 94%
03:00 0°C° 0.2 mm 1 mps 710 mmHg 94%
04:00 -1°C° 0.2 mm 1 mps 711 mmHg 94%
05:00 -1°C° 0 mm 1 mps 711 mmHg 93%
06:00 -1°C° 0 mm 1 mps 712 mmHg 91%
07:00 -2°C° 0 mm 1 mps 712 mmHg 90%
08:00 -1°C° 0 mm 1 mps 713 mmHg 85%
09:00 0°C° 0 mm 1 mps 713 mmHg 81%
10:00 +1°C° 0 mm 1 mps 714 mmHg 77%
11:00 +2°C° 0 mm 1 mps 714 mmHg 76%
12:00 +2°C° 0 mm 1 mps 714 mmHg 75%
13:00 +3°C° 0 mm 1 mps 715 mmHg 74%
14:00 +2°C° 0 mm 0 mps 715 mmHg 77%
15:00 +1°C° 0 mm 0 mps 715 mmHg 80%
16:00 +1°C° 0 mm 0 mps 716 mmHg 84%
17:00 0°C° 0 mm 0 mps 717 mmHg 84%
18:00 -1°C° 0 mm 0 mps 717 mmHg 85%
19:00 -2°C° 0 mm 0 mps 718 mmHg 86%
20:00 -1°C° 0 mm 1 mps 718 mmHg 84%
21:00 -1°C° 0 mm 1 mps 719 mmHg 83%
22:00 -1°C° 0 mm 1 mps 720 mmHg 82%
23:00 -2°C° 0 mm 1 mps 720 mmHg 81%

26 Enero, Martes

Tiempo Temperatura Precipitaciones Viento Presión Humedad
00:00 -2°C° 0 mm 1 mps 720 mmHg 79%
01:00 -2°C° 0 mm 1 mps 720 mmHg 78%
02:00 -2°C° 0 mm 1 mps 720 mmHg 76%
03:00 -4°C° 0 mm 2 mps 721 mmHg 75%
04:00 -4°C° 0 mm 2 mps 721 mmHg 73%
05:00 -4°C° 0 mm 2 mps 721 mmHg 74%
06:00 -4°C° 0 mm 2 mps 721 mmHg 74%
07:00 -4°C° 0 mm 2 mps 722 mmHg 74%
08:00 -2°C° 0 mm 2 mps 722 mmHg 74%
09:00 -1°C° 0 mm 2 mps 722 mmHg 74%
10:00 +2°C° 0 mm 2 mps 723 mmHg 74%
11:00 +2°C° 0 mm 2 mps 723 mmHg 74%
12:00 +3°C° 0 mm 2 mps 723 mmHg 73%
13:00 +3°C° 0 mm 3 mps 723 mmHg 73%
14:00 +3°C° 0 mm 3 mps 723 mmHg 74%
15:00 +3°C° 0 mm 2 mps 722 mmHg 76%
16:00 +3°C° 0 mm 2 mps 722 mmHg 78%
17:00 +2°C° 0 mm 2 mps 722 mmHg 79%
18:00 +1°C° 0 mm 2 mps 722 mmHg 80%
19:00 -1°C° 0 mm 2 mps 722 mmHg 81%
20:00 -1°C° 0.1 mm 2 mps 722 mmHg 83%
21:00 -1°C° 0.1 mm 2 mps 722 mmHg 84%
22:00 +1°C° 0.1 mm 2 mps 721 mmHg 86%
23:00 +1°C° 0.3 mm 2 mps 721 mmHg 87%
Mostrar más